Location: Kershaw
(34.5481°N, 80.5823°W)
Time: 09:24:53
(UTC+00:00)

Altair - Pass Details

Date: 03 October 2022
Orbit: 1501 x 1682 km, 47.2° (Epoch: 30 November)

Event Time Altitude Azimuth Distance (km) Brightness Sun altitude
Rises 12:28:59 0° 278° (W) 4,814 9.5 13.5°
Reaches altitude 10° 12:32:23 10° 286° (WNW) 3,854 9.0 14.1°
Maximum altitude 12:41:33 40° 354° (N) 2,276 8.4 15.9°
Drops below altitude 10° 12:50:57 10° 62° (ENE) 3,943 10.4 17.8°
Sets 12:54:28 0° 69° (ENE) 4,936 11.0 18.5°
